Regional Weather Roundup
Issued by NWS Northern Indiana

Home | Current Version | Previous Version | Text Only | Print | Product List | Glossary On
Versions: 1 2 3 4 5 6 7 8 9 10 11 12 13 14 15 16 17 18 19 20 21 22 23 24 25 26 27 28 29 30 31 32 33 34 35 36 37 38 39 40 41 42 43 44 45 46 47 48 49 50
000
ASUS43 KIWX 192310
RWRIWX

KIWX WEATHER ROUNDUP
NATIONAL WEATHER SERVICE NORTHERN INDIANA
600 PM EST FRI DEC 19 2014

NOTE: "FAIR" INDICATES FEW OR NO CLOUDS BELOW 12,000 FEET WITH NO
SIGNIFICANT WEATHER AND/OR OBSTRUCTIONS TO VISIBILITY.

* THESE STATIONS ARE NOT UNDER NWS QUALITY CONTROL. THEY ALSO MAY NOT
  REPORT WEATHER SUCH AS PRECIPITATION OR FOG.

INZ001>027-200000-
NORTHERN INDIANA

CITY           SKY/WX    TMP DP  RH WIND       PRES   REMARKS
VALPARAISO     CLOUDY    31  23  72 W3        30.32R
MICHIGAN CITY* CLOUDY    32  23  69 W3        30.33R
LAPORTE*       CLOUDY    32  28  83 W6        30.32R WCI  27
KNOX*          CLOUDY    31  25  77 W5        30.32R WCI  26
SOUTH BEND     CLOUDY    32  27  81 SW8       30.32R WCI  25
GOSHEN         CLOUDY    31  23  72 W8        30.31R WCI  23
MONTICELLO*    CLOUDY    30  27  89 CALM      30.30F
LOGANSPORT*    CLOUDY    30  27  86 CALM      30.31F
ROCHESTER*     CLOUDY    32  30  93 W7        30.32R WCI  26
WARSAW*        CLOUDY    32  27  80 W6        30.31R WCI  26
ANGOLA*        CLEAR     27  21  80 CALM      30.28R
FORT WAYNE     CLOUDY    31  24  75 E3        30.31R
HUNTINGTON*    CLOUDY    31  26  81 W7        30.30S WCI  24
PERU/GRISSOM   CLOUDY    30  30 100 NW6       30.30S WCI  24
MARION*        CLOUDY    30  27  91 W5        30.31S WCI  25

$$
INZ028>050-200000-
CENTRAL INDIANA

CITY           SKY/WX    TMP DP  RH WIND       PRES   REMARKS
LAFAYETTE      CLOUDY    29  26  89 CALM      30.31F
KOKOMO*        CLOUDY    30  25  80 NW5       30.31R WCI  25
MUNCIE*        CLOUDY    29  24  82 W5        30.30R WCI  24
INDIANAPOLIS   CLOUDY    29  23  78 CALM      30.29F

$$
MIZ043>046-050>051-056>058-064>065-071>073-077>080-200000-
SOUTHWEST LOWER MICHIGAN

CITY           SKY/WX    TMP DP  RH WIND       PRES   REMARKS
BATTLE CREEK   CLEAR     30  20  66 CALM      30.28R
BENTON HARBOR  CLOUDY    30  24  78 E3        30.31R
COLDWATER*     CLOUDY    29  23  79 MISG      30.28R
HILLSDALE*     CLOUDY    30  25  81 S3        30.27R
HOLLAND        CLEAR     28  21  75 CALM      30.30R
GRAND RAPIDS   PTCLDY    27  18  69 S5        30.28R WCI  22
KALAMAZOO      PTCLDY    29  21  72 CALM      30.29R
STURGIS*       CLEAR     27  23  86 CALM      30.29R
THREE RIVERS*  FAIR      29  22  75 CALM      30.30R

$$
OHZ001>008-015>018-024>025-200000-
NORTHWEST OHIO

CITY           SKY/WX    TMP DP  RH WIND       PRES   REMARKS
WAUSEON*       CLOUDY    30  25  80 S5        30.29R WCI  25
DEFIANCE       CLOUDY    31  22  69 CALM      30.31R
FINDLAY        CLOUDY    31  22  69 W7        30.28R WCI  24
TOLEDO EXPRESS CLOUDY    30  25  81 CALM      30.29R
TOLEDO METCALF CLOUDY    30  24  78 E3        30.30R
LIMA           CLOUDY    32  24  72 W3        30.29R

$$
AND FOR LAKE MICHIGAN COASTAL AND OPEN LAKE BUOY OBSERVATIONS

STATION/POSITION TEMP    WIND        PRES    VSBY  WAVE
                 AIR SEA DIR/SP/G                  HT/PER
                 (F)     (DEG/KT/KT) (MB)    (MI)  (FT/S)
CALUMET HARBOR    33     220/  3/  4 1025.5F
SAINT JOSEPH      33     300/  5/  8 1026.8R
MICHIGAN CITY CG     39                N/A       6   1

$$
&&


USA.gov is the U.S. government's official web portal to all federal, state and local government web resources and services.